Погода в Ковалевке

Украина / Винницкая область     49°01′07″N   28°53′20″E
темп.,
°C
ветер,
м/с
пор.,
м/с
влажн.,
%
обл.,
%
осадки,
мм/ч
давл.,
гПа
погр.,
м
12 мая, ср
ср1200:00+12всв389338 0.0 1016160
03:00+10в389833 0.0 1016213
06:00+10в5987100 0.0 1016385
09:00+10в78720 0.0 1016729
12:00+13в776021 0.0 10151373
15:00+11всв4661100 0.1 10151371
18:00+10всв5673100 0.0 1014611
21:00+9всв247387 0.1 1013117
13 мая, чт
чт1300:00+7в2281100 0.0 101220
03:00+6юв3389100 0.0 101150
06:00+5ююв369255 0.0 1011118
09:00+10ююв587349 0.0 1010697
12:00+8юв61187100 0.1 1010531
15:00+12ююв71277100 0.1 10081170
18:00+12ю71281100 0.0 1008791
21:00+10юв61295100 1.3 1008587
14 мая, пт
пт1400:00+9юв51293100 0.0 1008411
03:00+9юв4109244 0.1 1007277
06:00+7ююв499492 0.0 1007180
09:00+12ю5783100 0.0 1007374
12:00+12ю2391100 0.5 1008265
15:00+12ююз3596100 2.3 1008244
18:00+12юз2593100 0.4 1008212
21:00+11юз2395100 0.6 100957
15 мая, сб
сб1500:00+12зюз2393100 0.0 100972
03:00+11з3494100 0.0 1009103
06:00+10зсз2495100 0.0 1011113
09:00+11зсз2486100 0.0 1012214
12:00+15з346844 0.0 1012760
15:00+18юз455695 0.1 10111753
18:00+18юз236015 0.1 10111211
21:00+13св11765 0.1 101110
16 мая, вс
вс1600:00+11в338276 0.0 101123
03:00+10в348567 0.0 101158
06:00+10всв3593100 0.0 101188
09:00+15вюв4680100 0.0 1011370
12:00+19вюв5661100 0.0 1010942
15:00+20вюв5661100 0.5 10091476
18:00+19в4772100 1.0 1007913
21:00+14в51094100 3.3 1008265